Location: Unspecified
(0.0000°N, 0.0000°E)
Time: 03:58:18
(UTC+00:00)

Vanguard 2 - Pass Details

Date: 03 June 2024
Orbit: 552 x 2914 km, 32.9° (Epoch: 14 June)

Event Time Altitude Azimuth Distance (km) Brightness Sun altitude
Exits shadow 03:27:07 14° 182° (S) 4,809 11.3 -34.5°
Maximum altitude 03:32:04 16° 161° (SSE) 4,888 11.5 -33.4°
Drops below altitude 10° 03:41:04 10° 129° (SE) 5,686 12.2 -31.4°
Sets 03:48:47 0° 110° (ESE) 6,752 12.9 -29.7°
